Location: Arbon
(43.0005°N, 0.7472°E)
Time: 02:29:26
(UTC+00:00)

Lacrosse 4 Rocket - Pass Details

Date: 07 August 2020
Orbit: 544 x 615 km, 68.0° (Epoch: 19 September)

Event Time Altitude Azimuth Distance (km) Brightness Sun altitude
Exits shadow 00:12:58 28° 25° (NNE) 1,090 3.3 -30.6°
Drops below altitude 10° 00:15:02 10° 28° (NNE) 1,885 4.8 -30.6°
Sets 00:17:14 0° 29° (NNE) 2,774 5.8 -30.6°
